Weather History for KCWF - October, 2013

Change the Weather History Date:

Wednesday, October 30, 2013

  Actual Average Record
Temperature  
Mean Temperature 62 °F -  
Max Temperature 82 °F 75 °F 87 °F (2003)
Min Temperature 44 °F 59 °F 39 °F (2011)
Degree Days  
Heating Degree Days 3    
Growing Degree Days 12 (Base 50)    
Moisture  
Dew Point 68 °F    
Average Humidity 92    
Maximum Humidity 100    
Minimum Humidity 61    
Precipitation  
Precipitation 0.00 in - - ()
Sea Level Pressure  
Sea Level Pressure 30.07 in    
Wind  
Wind Speed 8 mph (ESE)    
Max Wind Speed 23 mph    
Max Gust Speed 29 mph    
Visibility 7 miles    
Events      
Averages and records for this station are not official NWS values.
T = Trace of Precipitation, MM = Missing Value Source: NWS Daily Summary

Daily Weather History Graph

Daily Weather History Graph

Search for Another Location

Airport or City:

Trip Planner

Search our weather history database for the weather conditions in past years. The results will help you decide how hot, cold, wet, or windy it might be!

Date:

Astronomy

Oct. 30, 2013 Rise Set
Actual Time 7:25 AM CDT 6:26 PM CDT
Civil Twilight 7:00 AM CDT 6:51 PM CDT
Nautical Twilight 6:32 AM CDT 7:19 PM CDT
Astronomical Twilight 6:04 AM CDT 7:47 PM CDT
Moon 3:31 AM CDT (10/30) 3:58 PM CDT (10/30)
Length of Visible Light 11h 50m
Length of Day
11h 01m
Waning Crescent, 17% of the Moon is Illuminated
Oct 30
Waning Crescent
Nov 3
New
Nov 9
First Quarter
Nov 17
Full
Nov 25
Last Quarter

Hourly Weather History & Observations

Time (CDT) Temp. Windchill Dew Point Humidity Pressure Visibility Wind Dir Wind Speed Gust Speed Precip Events Conditions
12:15 AM 67.8 °F - 67.8 °F 100% 30.14 in 7.0 mi East 5.8 mph - N/A   Clear
12:35 AM 68.2 °F - 68.2 °F 100% 30.13 in 7.0 mi East 6.9 mph - N/A   Clear
12:55 AM 68.9 °F - 68.9 °F 100% 30.14 in 7.0 mi East 5.8 mph - N/A   Clear
1:15 AM 68.4 °F - 68.4 °F 100% 30.13 in 7.0 mi East 5.8 mph - N/A   Clear
1:35 AM 68.0 °F - 68.0 °F 100% 30.12 in 7.0 mi ESE 5.8 mph - N/A   Clear
1:55 AM 68.0 °F - 68.0 °F 100% 30.12 in 5.0 mi ESE 4.6 mph - N/A   Clear
2:15 AM 68.0 °F - 68.0 °F 100% 30.12 in 5.0 mi East 4.6 mph - N/A   Clear
2:35 AM 67.6 °F - 67.6 °F 100% 30.12 in 4.0 mi East 3.5 mph - N/A   Clear
2:55 AM 67.5 °F - 67.5 °F 100% 30.12 in 4.0 mi East 3.5 mph - N/A   Clear
3:15 AM 66.7 °F - 66.7 °F 100% 30.11 in 3.0 mi East 4.6 mph - N/A   Mist
3:35 AM 67.1 °F - 67.1 °F 100% 30.11 in 4.0 mi East 4.6 mph - N/A   Clear
3:55 AM 67.5 °F - 67.5 °F 100% 30.12 in 5.0 mi East 5.8 mph - N/A   Clear
4:15 AM 67.6 °F - 67.6 °F 100% 30.10 in 5.0 mi East 6.9 mph - N/A   Clear
4:35 AM 67.6 °F - 67.6 °F 100% 30.10 in 5.0 mi East 6.9 mph - N/A   Clear
4:55 AM 68.0 °F - 68.0 °F 100% 30.09 in 5.0 mi East 6.9 mph - N/A   Clear
5:15 AM 67.3 °F - 67.3 °F 100% 30.10 in 4.0 mi East 5.8 mph - N/A   Clear
5:35 AM 67.1 °F - 67.1 °F 100% 30.09 in 4.0 mi East 6.9 mph - N/A   Scattered Clouds
5:55 AM 67.3 °F - 67.3 °F 100% 30.09 in 5.0 mi East 6.9 mph - N/A   Scattered Clouds
6:00 AM 66.2 °F - 66.2 °F 100% 30.09 in 10.0 mi East 6.9 mph - N/A   Scattered Clouds
6:15 AM 66.7 °F - 66.7 °F 100% 30.09 in 5.0 mi East 5.8 mph - N/A   Clear
6:35 AM 66.6 °F - 66.6 °F 100% 30.10 in 5.0 mi East 5.8 mph - N/A   Clear
6:45 AM 66.2 °F - 66.2 °F 100% 30.10 in 10.0 mi East 5.8 mph - N/A   Scattered Clouds
6:55 AM 66.4 °F - 66.4 °F 100% 30.10 in 5.0 mi East 6.9 mph - N/A   Clear
7:55 AM 66.2 °F - 66.2 °F 100% 30.08 in 3.0 mi East 11.5 mph - N/A   Scattered Clouds
8:57 AM 69.8 °F - 69.8 °F 100% 30.11 in 3.0 mi East 8.1 mph - N/A   Mostly Cloudy
9:57 AM 71.6 °F - 71.6 °F 100% 30.12 in 6.0 mi ESE 5.8 mph - N/A   Scattered Clouds
10:55 AM 73.4 °F - 69.8 °F 88% 30.11 in 6.0 mi East 9.2 mph - N/A   Scattered Clouds
11:50 AM 44.6 °F 42.2 °F 44.6 °F 100% 30.04 in 2.0 mi SE 4.6 mph - N/A   Overcast
11:58 AM 75.2 °F - 71.6 °F 89% 30.10 in 6.0 mi East 9.2 mph - N/A   Scattered Clouds
12:55 PM 78.8 °F - 71.6 °F 78% 30.07 in 7.0 mi ESE 11.5 mph - N/A   Mostly Cloudy
1:50 PM 80.6 °F - 69.8 °F 70% 30.04 in 10.0 mi SE 18.4 mph 23.0 mph N/A   Mostly Cloudy
2:50 PM 80.6 °F - 66.2 °F 61% 30.00 in 10.0 mi SE 23.0 mph 28.8 mph N/A   Mostly Cloudy
3:55 PM 78.8 °F - 68.0 °F 69% 29.99 in 10.0 mi SE 19.6 mph 25.3 mph N/A   Mostly Cloudy
4:50 PM 78.8 °F - 68.0 °F 69% 29.98 in 10.0 mi SSE 17.3 mph 21.9 mph N/A   Mostly Cloudy
5:50 PM 77.0 °F - 68.0 °F 74% 29.97 in 10.0 mi SE 9.2 mph 19.6 mph N/A   Overcast
6:50 PM 75.2 °F - 69.8 °F 83% 29.98 in 10.0 mi SE 12.7 mph - N/A   Mostly Cloudy
7:50 PM 75.2 °F - 69.8 °F 83% 29.97 in 10.0 mi ESE 15.0 mph 24.2 mph N/A   Overcast
8:50 PM 75.2 °F - 69.8 °F 83% 29.97 in 10.0 mi SE 13.8 mph 20.7 mph N/A   Overcast
9:48 PM 75.2 °F - 69.8 °F 83% 29.97 in 10.0 mi SE 13.8 mph 20.7 mph N/A   Overcast
10:55 PM 75.9 °F - 70.3 °F 83% 29.96 in 10.0 mi SE 12.7 mph 21.9 mph N/A   Overcast
11:15 PM 75.6 °F - 70.5 °F 84% 29.95 in 10.0 mi SSE 15.0 mph - N/A   Overcast
11:35 PM 75.4 °F - 70.3 °F 84% 29.94 in 10.0 mi SSE 13.8 mph 18.4 mph N/A   Mostly Cloudy
11:55 PM 75.4 °F - 70.0 °F 83% 29.94 in 10.0 mi SSE 13.8 mph 21.9 mph N/A   Mostly Cloudy